GFSNW_prec_cloud_267.txt.gz
Cloud_Cover
100 100 100 93 21 2 5 6 67 7 7 10 2 4 0 0 0 0 0 0 0 0 0 0 0 0 0 0 0 0 0 0 0 0 0 0 0 0 6 95 40 100 100 17
99 100 45 4 1 11 5 21 34 5 1 2 1 0 0 0 0 0 0 0 0 0 0 0 0 0 0 0 0 0 0 0 0 0 0 3 42 54 98 82 100 58 100 10
68 75 2 0 0 4 16 100 78 28 22 0 1 0 0 0 0 0 0 0 0 0 0 0 0 0 0 1 0 4 0 0 0 0 0 0 0 6 61 83 71 56 42 13
100 7 2 0 0 40 8 14 20 5 6 5 1 0 0 0 0 0 0 0 0 0 0 0 1 5 4 0 5 5 4 0 0 0 0 4 4 0 0 0 0 4 0 6
24 5 5 5 6 4 0 18 4 5 5 5 5 5 5 5 5 0 0 0 0 0 5 5 5 5 5 5 5 8 60 0 0 0 0 0 0 0 0 0 0 0 0 0
2 8 12 18 73 5 0 4 5 4 5 5 2 4 4 5 3 0 4 2 4 0 0 5 2 3 7 75 28 5 99 100 39 3 1 1 0 0 0 0 0 0 0 0
61 100 68 99 70 4 3 3 3 5 39 5 4 1 1 0 1 5 0 0 3 1 3 0 0 0 0 0 2 1 8 70 100 33 19 69 0 0 0 2 0 0 0 0
100 100 100 100 91 74 6 5 5 58 84 5 5 5 5 0 0 0 0 0 0 0 0 2 4 4 1 0 0 0 0 0 11 85 100 3 0 0 0 0 0 0 0 0
100 100 100 100 100 100 87 100 98 92 68 8 5 5 5 6 5 5 2 0 0 0 4 5 67 19 9 4 4 11 10 37 93 79 100 70 0 2 53 4 0 1 0 0
100 100 100 100 100 100 100 98 97 77 69 26 96 55 5 5 5 5 5 0 1 4 8 89 63 8 1 7 5 5 21 82 100 100 100 46 0 13 43 4 5 3 1 0
100 100 100 100 100 100 100 95 68 37 80 100 94 4 4 3 5 5 2 5 3 5 27 20 5 83 28 42 74 100 100 100 96 100 100 73 0 2 9 2 5 5 4 5
100 100 100 100 100 100 100 82 86 91 87 73 5 3 0 0 2 5 5 11 22 98 100 69 98 84 68 100 98 100 84 84 92 96 5 4 0 0 32 17 2 8 35 5
100 100 100 100 100 100 98 100 100 100 100 100 100 96 2 0 3 73 99 35 93 10 100 100 96 100 97 90 10 5 0 4 26 16 0 0 0 6 80 94 87 32 98 40
100 100 100 100 86 100 98 100 100 97 100 100 31 0 0 4 5 5 13 5 74 82 100 100 100 100 93 78 10 12 42 5 4 16 2 3 0 0 0 9 100 22 45 65
100 100 100 100 100 97 92 91 37 100 100 100 64 5 2 0 2 4 7 74 100 100 100 100 100 94 100 80 78 100 100 87 100 78 100 89 82 65 68 40 5 8 53 18
100 100 100 100 100 100 99 100 91 99 100 100 100 6 2 2 5 5 5 34 100 100 100 100 99 100 100 100 100 100 100 100 100 96 97 100 100 100 100 100 99 7 94 24
100 100 100 100 100 100 84 42 63 57 100 100 98 71 1 0 0 2 8 59 100 100 100 100 100 100 100 100 100 100 100 100 100 100 100 100 100 100 100 100 14 13 5 5
100 100 100 100 100 100 80 13 19 91 100 100 100 39 5 0 4 18 6 73 100 100 100 100 100 100 100 100 100 100 100 100 100 100 100 100 100 100 100 100 13 56 83 96
100 100 100 100 98 100 39 59 100 98 94 98 91 72 7 43 8 24 30 91 100 100 100 100 100 100 100 100 100 100 100 100 100 100 100 100 100 100 100 100 19 50 100 100
100 100 100 100 100 86 97 100 97 100 100 100 100 80 60 3 38 10 75 95 100 100 100 100 100 100 100 100 100 100 100 100 100 100 77 100 100 100 100 100 5 89 100 100
100 100 100 100 100 100 100 100 100 99 98 89 92 79 33 32 39 40 96 95 100 100 100 100 100 100 100 100 100 100 100 100 100 100 100 100 100 100 100 82 93 100 91 100
100 100 100 100 100 100 100 97 82 92 57 8 92 81 100 15 100 100 100 98 100 100 100 100 100 100 100 100 100 100 100 100 100 100 100 100 100 100 100 100 100 100 100 100
100 100 100 100 100 100 100 88 63 75 5 29 92 100 100 100 100 100 100 100 87 100 100 100 100 100 100 100 100 100 100 100 100 100 100 100 100 100 100 100 100 100 100 100
100 100 100 93 88 66 5 5 5 5 9 73 97 100 100 98 100 98 99 82 90 100 100 100 100 100 100 97 100 100 100 100 100 100 100 100 100 100 100 100 100 100 100 100
100 100 98 100 99 5 6 23 24 71 80 100 100 98 100 100 98 100 100 100 99 96 77 100 100 100 100 80 99 94 100 100 100 100 100 100 100 100 100 100 100 100 100 100
100 100 100 100 50 42 88 60 48 32 100 99 100 96 100 100 100 100 79 93 9 44 99 88 100 100 100 91 98 76 99 100 100 100 100 100 100 100 100 100 100 100 100 100
100 100 100 98 34 78 90 57 64 13 99 82 94 93 73 90 91 75 5 9 6 17 100 98 100 100 99 97 100 100 100 99 100 100 100 100 100 100 100 100 100 100 100 100

GFSNW_prec_cloud_270.txt.gz
Cloud_Cover
100 100 100 93 97 25 8 5 5 6 76 28 16 5 0 0 0 0 1 2 0 0 0 0 0 0 0 0 0 0 0 0 0 0 0 0 0 0 2 70 10 84 96 5
100 80 100 6 8 28 100 81 7 5 25 42 6 5 0 0 0 0 0 0 0 0 0 0 0 0 0 0 0 0 0 0 0 0 0 28 20 5 47 99 100 11 100 13
100 81 100 100 95 2 5 26 78 49 16 56 26 3 0 0 0 0 0 0 0 0 0 0 0 0 0 0 0 0 0 0 0 0 0 0 0 0 1 26 69 53 6 1
100 100 58 84 30 6 0 17 100 100 7 88 4 0 0 0 0 0 0 0 0 0 0 0 0 0 0 0 0 0 0 1 0 0 0 0 0 0 0 0 0 3 0 0
100 100 88 80 27 5 8 22 100 98 95 30 1 2 3 0 0 0 0 0 0 0 0 4 5 2 0 5 0 0 1 5 5 5 2 0 0 0 0 0 0 0 0 0
100 100 100 95 92 7 95 95 100 97 18 5 2 3 3 3 0 0 0 0 1 0 0 0 1 3 2 0 4 4 20 5 70 21 5 11 22 0 0 0 0 0 0 0
100 100 100 100 26 100 87 61 36 14 36 4 2 2 0 2 0 0 0 0 2 0 0 0 0 0 0 0 0 0 0 5 86 72 94 91 0 0 1 1 0 0 0 0
100 100 100 100 100 100 100 100 39 30 74 5 4 2 2 0 0 3 0 0 0 0 0 2 5 4 0 0 0 0 2 13 100 100 100 4 0 1 1 4 0 0 4 0
100 100 100 100 100 100 100 100 96 92 29 5 5 5 5 5 5 5 2 0 0 0 4 5 79 6 4 1 0 2 13 90 100 100 100 95 0 59 65 55 0 6 5 0
100 100 100 88 100 100 100 100 100 88 7 10 88 83 8 5 5 5 4 0 1 4 12 88 80 26 2 4 3 5 2 20 85 100 100 88 22 8 96 38 0 5 3 36
100 100 100 100 100 91 98 100 41 44 98 100 100 97 6 5 5 5 4 2 3 5 16 18 7 88 10 57 5 89 25 54 83 86 100 72 95 100 96 45 98 63 80 30
92 100 100 100 99 86 95 32 100 100 100 100 100 58 8 5 35 5 5 1 5 5 35 65 82 100 95 63 61 5 53 6 8 6 4 0 1 13 37 13 79 27 100 93
100 92 97 80 100 100 100 100 100 100 100 100 100 54 5 36 6 5 5 6 5 5 5 80 90 100 79 86 10 5 5 6 24 74 2 2 1 2 6 5 5 2 0 0
100 100 100 100 100 100 100 100 100 100 100 100 32 5 6 5 3 3 5 5 46 40 91 100 100 100 90 91 7 10 45 56 70 100 69 24 93 42 100 100 100 100 86 12
100 100 100 100 100 100 100 100 100 97 100 100 61 5 13 5 0 1 5 5 45 100 100 100 100 98 100 98 97 100 100 94 100 95 100 100 100 100 100 100 100 100 100 88
100 100 100 100 100 100 100 100 100 76 98 100 76 6 5 2 4 5 64 99 100 100 100 100 100 100 100 100 100 100 100 100 100 100 100 100 100 100 100 100 100 100 100 100
100 100 100 100 100 100 100 100 99 90 100 100 90 50 5 1 0 6 95 100 100 100 100 100 100 100 100 100 99 100 100 100 100 100 100 100 100 100 100 100 100 100 100 88
100 100 100 100 100 100 100 100 96 89 100 100 100 61 5 2 3 15 38 100 100 100 100 100 100 100 100 88 97 100 100 100 100 100 100 100 100 100 100 100 100 100 100 99
100 100 100 100 100 100 97 100 74 93 100 100 100 79 8 5 33 79 78 100 100 92 100 100 98 82 100 98 100 100 100 100 100 100 100 100 100 100 100 100 100 100 100 100
100 100 100 100 100 100 100 99 100 100 100 100 100 54 59 5 44 5 60 91 93 100 75 96 100 100 100 93 100 100 100 100 100 100 100 100 100 96 100 100 100 100 100 100
100 100 100 100 100 100 100 100 100 99 97 94 96 48 58 8 5 19 46 99 100 82 68 88 78 100 100 100 94 100 100 100 100 100 100 100 100 100 100 100 100 100 100 100
100 100 100 100 100 100 91 99 99 96 39 18 72 91 100 12 43 98 100 98 98 73 74 100 79 100 95 80 82 100 100 100 100 100 100 100 100 100 100 100 100 100 100 100
100 100 100 100 100 100 100 100 81 60 80 23 88 96 94 98 100 100 100 98 97 77 100 93 43 79 98 50 87 100 100 98 100 100 100 100 100 100 100 100 100 100 100 100
100 100 100 88 100 100 100 27 14 38 54 64 100 100 100 100 99 99 97 95 96 100 100 57 43 99 89 23 52 75 100 100 100 100 100 100 100 100 100 100 100 100 100 100
100 100 100 100 100 100 98 10 33 78 64 100 100 100 100 100 88 99 100 100 100 93 6 13 100 90 56 90 77 71 84 98 96 91 100 100 100 100 100 100 100 100 100 100
100 100 100 100 100 100 93 88 83 59 100 100 99 100 100 99 100 100 100 99 13 5 13 77 100 100 67 62 96 94 66 62 94 98 100 100 100 100 100 100 100 100 100 100
100 100 100 100 100 100 35 90 100 57 100 100 88 98 17 88 98 97 41 9 5 9 89 87 100 33 99 44 62 100 54 5 5 54 96 98 100 100 100 100 100 100 100 100

GFSNW_prec_cloud_276.txt.gz
Cloud_Cover
100 100 100 100 100 93 96 68 66 2 7 95 100 98 5 5 5 1 0 0 0 5 5 56 83 62 6 8 40 57 29 8 7 5 5 4 0 0 0 0 0 2 13 1
100 100 100 100 100 100 100 54 4 0 0 0 0 3 18 66 5 5 5 0 0 4 6 24 50 5 3 0 3 5 5 4 5 1 1 0 0 4 4 4 31 6 55 0
100 100 100 100 100 100 100 33 21 5 0 5 6 3 0 2 23 84 13 0 2 5 3 3 15 68 4 4 0 2 4 2 0 0 0 0 0 0 1 5 22 4 0 1
100 100 100 97 100 100 100 99 100 88 0 0 4 0 0 0 0 1 0 0 0 1 2 0 1 2 0 0 2 0 0 0 0 0 0 0 0 3 96 41 4 91 1 4
100 100 100 100 100 100 100 98 100 42 5 1 0 2 0 5 2 0 0 0 0 0 4 0 0 0 0 0 0 0 3 3 2 4 0 0 0 0 3 4 5 100 100 88
100 100 100 100 100 100 100 100 100 83 80 28 1 1 5 0 0 0 0 0 0 0 0 0 0 0 0 0 0 1 5 4 6 3 0 9 16 4 0 0 2 13 75 100
100 100 100 100 100 100 100 100 100 100 100 100 100 88 5 5 2 4 3 1 0 3 0 0 0 0 0 0 0 0 0 3 39 20 20 52 0 0 0 0 30 45 86 100
100 100 100 100 100 100 78 100 100 78 100 100 70 13 66 10 2 0 0 56 76 3 0 1 1 0 0 0 0 0 0 4 100 98 38 2 5 0 0 0 2 63 49 100
100 100 100 100 100 100 100 100 26 44 100 100 100 50 89 9 2 0 0 0 0 2 1 4 5 0 0 0 0 0 2 16 99 100 100 29 1 0 1 5 3 68 99 64
100 100 100 100 100 100 100 100 99 100 91 98 81 60 100 100 92 9 2 2 5 5 74 38 50 5 0 3 0 0 61 97 100 100 100 89 8 33 64 91 47 100 100 100
100 100 100 100 100 100 100 100 100 92 100 100 82 72 7 8 3 5 4 4 3 15 52 32 52 48 5 5 4 0 5 9 92 94 100 73 89 100 100 100 91 95 100 100
100 100 100 100 100 100 100 100 100 100 100 100 100 97 82 63 2 2 4 13 5 93 80 5 31 96 94 64 63 5 55 5 89 80 44 4 64 100 94 100 100 100 100 100
100 100 100 100 100 100 100 100 100 100 100 100 98 100 100 98 1 30 7 2 6 100 77 56 81 98 88 82 53 6 69 88 94 100 19 99 100 56 100 100 100 100 100 100
100 100 100 100 100 100 100 100 100 98 100 90 62 5 100 95 7 5 25 35 5 42 19 58 92 90 92 83 70 78 26 50 94 99 100 33 99 100 99 100 99 92 100 100
100 100 100 100 100 93 87 100 100 100 43 98 52 77 100 93 70 16 26 87 99 98 84 100 94 100 99 90 100 72 58 100 100 99 90 100 95 98 98 100 100 100 100 100
100 100 100 100 100 100 84 81 100 100 100 98 99 77 82 100 98 50 47 50 88 93 100 100 100 100 100 100 99 49 21 53 99 100 96 100 100 100 100 100 100 100 100 100
100 100 100 100 100 100 100 41 48 76 98 100 98 100 100 100 100 100 100 100 100 90 100 100 100 100 100 90 99 93 11 35 35 71 100 100 100 100 100 92 86 67 90 100
98 65 59 95 100 89 100 95 99 100 100 100 100 100 100 100 100 100 100 100 100 100 100 100 100 100 100 84 62 47 68 40 97 100 100 100 100 100 100 100 100 96 100 100
100 100 100 100 100 100 91 100 100 100 100 100 100 94 94 100 100 100 100 100 100 95 100 89 98 100 98 67 53 62 100 100 100 97 73 100 100 100 100 100 100 100 100 100
100 100 100 100 100 89 86 87 100 100 100 100 100 44 62 100 80 99 96 99 100 100 92 100 100 100 89 97 63 100 100 100 100 100 100 100 100 100 100 100 100 100 100 100
100 100 100 100 100 94 98 100 100 100 100 100 100 68 76 100 100 86 12 94 99 100 100 96 100 73 100 66 65 98 98 100 100 100 100 100 100 100 100 100 100 100 100 100
100 100 100 100 100 100 100 78 96 100 100 100 100 100 96 100 100 18 84 87 95 100 76 100 90 60 30 64 50 66 81 100 100 100 100 100 100 100 100 100 100 100 100 100
100 100 100 100 100 100 99 97 100 100 100 100 100 99 100 100 91 81 99 100 100 68 96 96 72 50 51 36 52 59 83 96 90 93 98 100 100 100 100 100 100 100 100 100
100 100 100 85 99 75 95 100 69 96 100 100 100 100 100 100 98 97 100 99 81 100 100 63 12 47 94 53 78 58 78 89 95 97 96 100 100 100 100 100 100 100 100 100
100 100 83 81 6 27 100 100 100 100 100 100 100 100 100 96 91 87 97 97 100 100 79 17 48 95 70 100 100 68 87 80 100 94 98 96 95 99 100 100 100 100 100 100
100 100 100 96 94 94 100 100 100 100 100 100 100 100 100 95 91 100 100 100 59 9 5 29 92 100 87 98 66 64 77 78 81 90 84 91 99 90 99 100 99 100 100 100
92 63 29 98 97 99 100 100 100 100 100 100 100 100 100 100 100 98 98 61 5 5 34 37 37 64 100 92 72 19 27 53 82 81 88 91 83 99 86 81 94 74 98 97

GFSNW_prec_cloud_279.txt.gz
Cloud_Cover
66 25 6 100 100 100 100 100 100 55 100 77 70 100 100 93 95 65 61 5 5 5 5 4 5 5 23 5 40 3 0 4 1 4 5 5 5 0 5 5 0 2 75 1
94 86 48 92 96 100 100 99 100 100 100 100 100 100 73 96 72 100 98 50 57 71 8 6 5 5 20 74 12 4 5 12 5 5 0 0 0 0 0 0 3 0 4 0
100 100 99 27 60 99 100 100 41 28 14 45 78 80 78 71 99 94 76 78 93 91 95 83 72 58 16 1 0 4 5 8 5 0 0 0 0 0 0 0 0 2 0 0
76 100 100 26 84 99 100 100 72 77 14 5 4 1 4 4 4 3 5 6 5 5 5 3 0 0 0 0 0 0 0 0 0 0 0 0 0 0 0 0 0 4 0 0
94 92 100 100 100 100 100 100 98 26 32 12 63 1 0 1 0 0 0 0 0 0 0 0 0 0 0 0 0 0 0 0 0 0 0 0 0 0 0 0 0 0 0 0
100 100 92 100 100 100 100 100 100 80 95 48 81 89 87 5 1 0 0 0 0 0 0 0 0 0 0 0 0 0 0 0 0 0 0 0 0 0 0 0 2 5 3 5
100 100 100 100 100 100 100 100 100 95 34 100 61 54 41 19 32 28 0 1 0 0 0 0 0 0 0 0 0 0 0 0 2 4 4 4 0 0 0 0 2 5 71 96
100 100 100 100 100 100 100 100 100 100 100 56 62 100 87 56 81 86 82 9 32 64 1 0 1 2 0 0 0 0 0 0 4 12 6 10 1 4 9 66 3 6 100 100
100 100 100 100 100 100 100 100 100 100 100 100 100 97 100 100 100 100 100 100 87 2 13 4 6 3 0 0 0 0 0 30 54 97 100 98 5 62 100 92 5 100 100 100
100 100 100 100 100 100 100 100 100 100 100 100 100 100 100 100 87 22 75 71 98 72 19 6 67 10 0 0 0 0 5 82 81 100 100 86 25 100 86 100 78 97 100 100
100 100 100 100 100 100 100 100 100 100 100 53 34 98 100 100 100 70 54 14 9 5 17 40 67 5 5 0 0 0 5 5 96 100 99 65 95 6 99 100 100 100 100 99
100 100 100 100 100 88 80 100 100 100 100 100 100 95 66 78 8 12 5 32 6 37 33 19 71 82 52 17 63 5 46 63 76 86 44 4 93 100 100 98 100 84 100 100
100 100 100 100 100 100 100 100 100 100 100 100 100 100 100 100 100 97 69 34 86 82 92 48 86 93 35 74 43 94 75 81 98 94 19 100 90 41 52 98 100 100 100 100
100 100 100 100 100 100 100 100 100 100 100 100 100 100 100 100 93 100 100 100 100 100 100 94 79 100 74 70 77 81 23 53 63 95 97 29 14 63 100 97 66 100 100 100
100 100 100 100 100 100 100 100 100 100 100 100 100 100 100 100 100 100 100 100 99 97 65 100 51 52 51 99 99 59 7 93 93 97 46 98 37 70 100 100 100 100 96 98
100 100 100 100 100 100 100 100 100 99 98 99 100 100 100 100 99 100 100 32 87 100 100 100 99 99 100 100 95 14 14 79 73 100 80 70 48 98 77 100 100 99 100 78
100 100 100 100 100 100 100 83 99 74 62 99 93 91 100 100 100 98 100 100 100 100 100 100 100 100 100 91 69 8 46 18 5 20 50 14 16 86 100 100 100 92 100 83
100 100 100 100 100 99 79 94 42 63 99 98 100 88 100 96 100 100 100 100 100 100 100 100 100 100 98 76 30 79 13 5 5 14 84 100 100 100 84 100 80 72 99 100
100 100 100 100 100 90 83 53 61 63 83 99 74 100 100 80 100 100 100 100 100 100 100 100 100 100 91 26 74 20 34 78 96 59 62 70 74 100 96 100 100 93 94 96
100 100 100 100 100 74 95 91 100 83 93 91 86 72 100 100 100 100 100 100 100 100 100 100 100 100 74 71 45 83 96 100 100 98 77 86 99 100 92 100 100 100 100 99
100 100 92 96 100 99 100 100 99 100 98 100 100 61 100 85 100 100 100 97 83 99 100 100 100 77 68 40 23 92 100 100 100 100 100 100 100 99 98 100 100 100 100 98
94 100 62 96 100 100 100 100 100 100 100 100 99 100 100 100 100 100 89 81 98 100 100 99 100 56 91 50 42 100 100 100 99 100 100 98 100 96 100 100 100 100 100 100
75 96 100 100 93 100 96 100 100 100 100 100 100 94 100 100 99 85 99 99 100 100 100 100 85 70 63 54 92 100 100 100 100 100 100 100 99 98 100 100 94 100 100 100
93 100 98 71 90 44 95 100 100 100 100 100 100 100 100 100 100 100 96 100 100 100 100 79 86 41 58 79 100 96 100 100 100 100 100 100 100 100 100 100 94 82 100 100
100 100 73 18 10 100 100 100 100 100 100 100 100 100 98 100 100 99 100 100 100 100 74 96 34 32 65 99 100 100 100 100 100 100 100 100 100 100 100 100 100 100 98 99
100 95 85 61 71 53 97 100 100 100 100 100 100 100 100 99 88 100 100 100 84 96 65 54 28 99 100 100 100 100 100 100 100 98 93 97 100 100 100 100 98 95 90 100
48 5 7 96 22 94 100 100 100 100 100 100 100 100 100 89 100 100 100 88 93 73 52 6 6 53 98 99 98 98 90 78 84 85 93 82 91 85 93 86 89 67 54 70

GFSNW_prec_cloud_285.txt.gz
Cloud_Cover
100 100 100 100 100 100 100 100 100 100 100 100 100 100 100 100 100 94 96 43 79 18 5 6 5 5 82 17 99 65 5 5 5 5 5 5 5 5 5 30 5 5 0 0
100 100 100 100 100 100 100 100 100 100 100 100 100 100 100 100 100 100 100 90 82 87 94 82 12 22 58 68 16 1 5 5 9 19 10 7 56 13 4 2 1 0 0 0
100 100 100 100 100 100 100 100 100 100 100 100 100 100 100 100 100 100 100 100 100 100 100 100 100 98 100 11 5 84 66 36 50 16 5 1 4 0 0 0 0 0 0 0
100 99 100 100 100 100 100 100 100 100 100 100 100 100 100 100 100 100 100 100 100 100 100 88 14 26 5 13 10 31 75 94 55 3 0 0 0 0 0 0 0 0 0 0
100 100 100 100 100 100 100 100 100 100 100 100 94 100 100 100 100 100 100 99 100 100 100 82 81 24 92 100 100 70 5 0 0 0 0 0 5 0 0 0 0 0 0 0
100 91 100 100 100 100 100 100 100 100 100 100 100 100 100 100 96 100 94 88 77 37 98 100 99 81 63 74 57 59 4 5 5 0 3 5 2 0 0 0 0 0 0 8
100 96 100 100 100 100 100 98 80 100 100 100 100 100 100 100 100 100 100 100 100 100 88 100 68 6 1 0 0 5 18 2 5 5 5 5 4 0 2 0 0 0 4 5
99 99 87 100 100 99 98 52 59 89 100 87 100 100 100 100 100 100 100 100 100 50 98 100 23 5 4 2 4 5 4 5 5 65 5 5 28 17 4 0 2 5 5 5
100 49 6 100 100 100 87 73 68 45 89 46 80 98 92 98 6 95 99 100 80 23 5 41 71 20 6 34 98 94 20 10 79 100 93 83 7 4 5 2 0 5 5 5
98 90 93 100 85 94 99 86 62 98 100 65 100 76 98 94 66 5 100 100 100 51 25 20 7 96 100 98 15 100 78 100 100 100 100 100 17 5 2 3 5 5 5 11
98 100 55 86 69 96 83 95 72 82 100 100 100 100 100 100 100 100 100 100 92 27 24 43 100 100 100 99 100 100 100 100 100 98 68 41 15 3 7 6 5 5 5 40
100 88 49 100 99 97 100 100 93 99 100 39 100 81 30 97 99 99 100 100 100 98 92 92 100 100 98 100 100 100 100 100 98 2 82 97 6 6 11 5 5 5 91 94
100 100 26 100 100 100 100 92 100 100 37 52 98 100 100 96 95 82 90 100 100 100 100 100 100 100 100 100 100 100 100 82 4 37 100 61 95 85 18 78 5 7 25 14
100 100 100 95 100 100 100 100 100 100 100 100 100 100 100 100 78 83 100 100 100 100 100 100 100 100 100 100 100 100 100 13 88 100 45 69 100 19 93 78 5 9 65 100
100 100 100 100 100 100 100 100 100 99 86 100 100 100 100 98 100 100 100 100 96 100 100 100 100 100 96 40 12 100 100 100 96 100 97 5 52 61 99 36 52 85 100 100
100 100 100 100 100 100 100 97 97 100 100 100 100 100 100 100 100 100 100 100 90 100 99 100 90 55 68 34 93 100 90 100 20 100 63 5 99 48 79 92 100 78 100 100
100 100 100 100 100 100 100 100 100 100 100 100 100 100 100 100 100 100 100 100 100 100 86 97 100 100 100 90 97 100 100 100 95 5 5 96 100 99 44 97 100 86 99 96
100 100 100 100 100 100 100 100 100 100 100 100 100 100 100 100 100 100 100 100 100 100 100 74 100 100 79 83 91 90 98 78 23 5 42 85 100 90 76 99 100 100 100 74
7 98 100 100 100 100 100 100 100 100 100 100 100 100 100 100 100 100 100 100 100 94 100 99 76 82 94 98 99 43 5 5 6 5 16 99 97 99 87 97 100 100 95 80
5 5 39 100 100 100 100 100 100 100 100 100 100 100 100 98 100 100 72 100 99 100 100 82 69 56 50 6 5 5 5 5 5 40 95 56 100 100 100 100 100 100 95 76
5 14 37 65 74 100 100 86 100 100 100 100 100 86 100 100 100 100 100 80 63 31 37 41 77 64 68 47 83 32 18 5 9 8 6 69 82 100 100 100 100 98 88 87
52 32 32 42 61 100 100 100 100 100 100 100 92 70 99 99 100 100 58 81 87 83 98 82 39 100 64 48 85 100 99 55 68 61 86 97 100 100 100 100 100 96 91 80
39 53 86 66 50 97 100 100 100 100 100 100 46 34 94 98 82 94 80 24 77 16 97 91 80 64 31 38 53 100 100 100 100 98 100 100 100 100 100 99 95 73 97 85
82 13 64 72 56 75 5 94 100 100 100 100 100 100 91 72 88 31 72 8 58 66 88 20 9 83 57 15 27 100 100 100 100 100 100 100 100 100 99 61 8 7 52 66
46 90 90 12 89 50 77 61 85 100 100 100 100 100 66 16 27 23 15 75 40 5 5 30 8 23 38 42 98 100 100 100 100 100 100 100 100 100 100 100 92 5 5 5
89 65 74 4 4 29 100 100 90 98 100 100 100 100 100 83 6 52 25 47 7 2 28 7 55 97 100 99 100 100 100 100 100 100 100 100 100 100 98 100 100 5 5 5
97 21 1 5 5 6 6 86 100 100 100 100 100 68 8 11 7 48 5 5 3 22 23 87 100 100 100 100 100 100 100 100 100 100 100 100 100 100 100 98 77 5 5 16

GFSNW_prec_cloud_288.txt.gz
Cloud_Cover
100 100 100 100 100 100 100 100 100 100 100 100 100 100 100 100 100 100 99 96 38 78 88 37 6 60 31 5 17 29 5 66 32 18 5 32 100 100 10 0 0 5 5 0
100 100 100 100 100 100 100 100 100 100 100 100 100 100 100 100 100 100 100 100 100 52 11 39 18 46 87 99 51 5 33 23 69 100 100 100 100 5 3 4 5 5 0 0
100 100 100 100 100 100 100 100 100 100 100 100 100 100 100 100 100 98 100 93 100 64 6 40 58 91 100 73 64 97 100 100 100 100 100 95 15 5 2 0 0 0 3 5
100 100 100 100 100 100 100 100 100 100 100 100 100 100 100 100 100 91 97 95 98 60 44 74 99 100 93 100 100 100 100 100 100 82 11 5 5 5 3 4 0 5 87 88
100 100 100 100 100 100 100 100 100 100 100 100 100 100 100 100 100 100 58 34 32 100 100 100 43 32 96 100 100 100 100 99 57 30 5 20 5 5 6 3 5 26 100 100
100 100 100 100 100 100 100 100 100 100 100 100 100 100 100 100 100 100 100 100 100 100 80 100 100 100 59 74 54 17 27 44 20 8 8 14 17 89 100 27 19 100 100 74
100 68 100 100 100 100 100 100 100 100 100 100 100 100 100 100 100 100 100 100 100 100 100 100 98 17 5 5 83 100 100 100 9 30 30 5 5 100 100 75 100 100 100 99
100 100 100 100 100 100 100 100 100 100 100 100 100 100 100 99 100 98 82 85 67 93 92 72 44 20 92 100 100 100 100 100 90 39 6 29 98 100 100 100 100 100 93 30
100 100 100 100 100 100 100 100 100 100 100 100 100 100 100 100 100 100 100 100 100 100 99 100 100 100 75 100 99 30 5 11 39 6 11 100 100 100 100 100 100 100 71 5
100 100 100 94 100 100 100 100 100 100 100 89 100 100 100 100 100 100 100 92 100 100 100 100 100 100 95 40 66 100 100 100 76 100 100 100 100 100 100 100 100 61 5 95
100 100 100 100 95 100 100 100 100 94 100 100 100 68 26 15 26 96 100 18 12 13 38 45 71 74 88 99 100 100 50 68 54 100 99 94 100 100 100 100 38 5 9 66
100 100 100 100 100 84 7 84 90 99 97 100 31 19 32 24 6 86 98 54 99 26 80 69 66 93 100 100 100 100 56 78 41 100 61 100 100 100 100 84 5 11 36 13
100 100 100 100 100 100 99 74 63 96 100 71 33 10 10 5 5 37 100 98 98 93 38 36 99 100 92 95 100 100 100 34 5 93 100 100 99 26 5 5 5 13 66 100
100 100 100 100 100 100 100 100 96 11 76 87 78 12 11 79 7 13 91 100 100 100 56 82 97 74 66 30 42 90 98 37 100 100 66 59 41 5 5 5 5 5 98 100
100 100 100 100 100 100 100 100 100 97 88 50 100 60 5 73 97 61 69 55 67 100 99 87 59 28 72 81 100 100 94 59 100 100 37 8 5 21 45 5 5 6 52 100
100 100 100 100 100 100 100 100 96 99 100 97 97 96 100 100 77 13 100 100 100 100 100 87 12 99 100 100 100 100 56 100 92 70 100 100 100 100 48 5 39 12 61 100
95 100 100 100 100 100 100 100 100 100 100 100 98 70 100 99 91 98 100 100 100 100 100 100 100 100 100 100 100 100 100 100 100 24 5 14 6 32 16 11 100 73 100 100
49 27 51 100 100 100 100 100 100 100 100 100 100 100 100 100 100 100 100 100 100 100 100 100 100 100 100 100 100 100 100 23 19 5 5 51 5 5 47 49 98 100 100 100
5 38 49 56 80 100 100 100 100 100 100 100 100 100 100 100 98 100 100 100 100 87 84 100 100 100 100 100 100 100 100 92 22 55 8 5 5 6 75 78 97 100 98 96
3 16 6 15 10 12 98 100 100 100 100 100 100 100 100 100 100 100 100 100 99 99 100 100 100 100 96 62 99 100 100 97 5 5 47 8 6 8 99 100 100 100 92 97
5 17 40 18 7 12 64 87 100 100 100 100 100 100 100 97 96 99 100 100 100 96 79 91 100 100 100 100 77 79 94 19 35 5 5 5 5 9 95 100 100 97 28 84
75 8 5 8 45 77 59 52 58 96 95 100 100 100 100 100 100 100 100 100 100 100 100 100 100 88 100 100 96 23 5 5 5 5 5 5 6 39 91 100 100 80 70 15
64 89 57 82 71 60 48 6 52 11 94 100 100 100 100 98 95 84 93 100 100 100 100 100 100 49 100 100 100 90 81 8 5 42 58 37 70 94 92 87 90 69 62 59
5 5 15 6 86 36 50 58 51 48 97 100 100 100 100 94 70 87 82 19 75 78 99 26 6 87 100 100 100 100 100 99 98 83 75 74 91 84 81 60 60 58 76 75
13 5 19 15 87 100 100 100 100 92 92 97 78 100 57 85 87 29 5 52 64 5 5 5 23 53 100 100 100 86 95 96 83 85 94 90 94 78 94 72 27 5 5 5
95 30 49 5 5 14 94 99 100 100 100 100 100 75 100 99 11 73 96 89 8 5 5 6 53 92 72 98 100 100 100 100 100 80 100 87 100 82 90 97 73 5 5 5
56 27 5 5 5 5 10 5 32 84 100 100 100 100 100 26 60 66 21 5 4 5 67 17 11 28 78 95 100 100 100 100 100 100 100 99 100 100 100 100 100 17 5 5

GFSNW_prec_cloud_291.txt.gz
Cloud_Cover
100 100 100 100 100 100 100 100 100 100 100 100 100 100 99 99 100 78 39 6 23 57 59 7 5 73 7 76 10 7 14 88 36 5 5 5 5 28 21 91 100 40 35 98
100 100 100 100 100 100 100 100 100 100 100 100 100 100 100 100 100 100 89 78 64 86 52 5 5 94 88 64 20 5 7 5 5 5 8 6 75 6 32 72 100 100 80 0
100 100 100 100 100 100 100 100 100 100 100 100 100 100 100 100 100 91 100 99 83 82 87 61 49 57 39 8 5 9 26 5 6 27 8 62 63 100 100 56 56 15 0 0
100 100 100 100 100 100 100 100 100 100 100 100 100 100 100 100 100 100 100 100 100 53 74 95 81 86 80 17 5 5 5 5 16 84 99 100 96 13 18 11 4 5 5 1
100 100 100 100 100 100 100 100 100 100 100 100 100 100 100 100 100 100 100 100 100 84 100 100 76 5 26 58 99 61 7 89 100 100 51 32 99 82 5 5 5 100 9 20
100 100 100 100 100 100 100 100 100 100 100 100 100 100 100 100 100 100 100 100 100 100 99 96 77 93 96 99 100 67 12 86 93 100 100 97 9 4 63 63 100 32 61 100
100 100 100 100 100 100 100 100 100 100 100 100 100 100 100 100 100 100 63 82 81 56 14 26 29 57 31 6 35 68 96 100 97 63 39 2 5 99 100 100 100 12 100 100
100 100 100 100 100 100 100 100 100 100 100 100 100 100 100 100 100 99 98 38 78 63 18 22 95 100 88 75 32 93 100 91 40 14 5 5 6 94 100 100 64 5 100 100
100 100 100 100 100 100 100 100 100 100 100 100 100 100 100 100 100 100 98 31 93 94 61 32 30 100 100 77 100 100 16 12 88 98 100 53 98 100 41 3 4 6 100 99
65 100 100 100 100 100 100 100 100 100 100 100 100 100 100 100 100 94 91 100 100 98 100 100 100 100 97 35 39 73 100 59 65 100 32 56 100 100 38 85 32 6 20 45
100 100 100 99 100 100 99 100 100 100 100 100 100 100 100 100 100 100 100 100 100 100 100 100 100 95 100 100 100 73 23 33 23 48 100 38 99 100 100 100 100 21 55 100
100 100 100 100 100 100 97 64 99 70 96 94 100 100 100 100 100 100 100 100 100 100 100 100 100 100 100 100 60 5 49 18 5 96 90 97 100 100 100 100 100 5 33 80
100 100 100 100 100 100 91 100 86 92 100 100 100 100 100 100 100 90 77 54 79 100 96 70 39 8 5 5 6 3 5 6 9 100 100 99 100 100 99 6 5 100 72 100
100 100 100 100 100 100 100 100 100 92 99 100 100 100 100 100 100 100 62 18 10 37 5 14 36 5 5 5 5 5 64 30 8 4 50 91 67 100 51 5 6 100 100 100
100 98 100 100 100 100 100 100 100 100 100 86 84 100 100 59 54 49 58 35 6 13 9 6 5 27 4 8 5 6 100 98 11 5 73 100 94 100 73 19 56 34 85 100
100 100 100 100 100 100 100 100 97 100 100 99 100 100 14 74 27 82 97 100 99 94 100 53 20 16 76 5 33 59 100 38 100 58 85 73 99 100 100 100 92 19 99 100
100 100 100 100 100 100 100 100 100 100 100 100 100 98 78 96 100 100 99 69 93 100 98 53 62 98 79 53 52 100 79 25 100 100 100 100 100 100 6 5 6 45 100 100
100 100 100 100 100 100 100 100 100 100 100 87 73 77 64 100 100 83 100 100 100 100 90 64 96 17 18 81 100 100 100 99 100 100 100 100 100 100 5 17 5 90 97 100
100 100 100 100 100 100 100 100 100 100 100 100 95 100 100 97 94 80 100 100 100 100 97 100 100 99 97 100 100 100 100 74 100 100 96 100 95 32 60 100 84 99 100 100
62 99 100 100 100 100 96 98 100 100 100 92 92 91 99 98 100 100 100 100 100 100 100 100 97 61 100 93 94 34 100 100 100 100 65 91 98 22 34 34 98 100 100 100
1 27 48 26 6 16 7 17 11 43 5 20 46 99 97 98 82 100 93 96 96 96 100 100 88 98 100 100 16 54 100 99 94 75 54 5 5 6 51 78 100 100 99 85
5 11 7 5 5 8 6 13 24 11 7 44 12 73 90 96 94 90 100 100 100 99 73 98 81 100 100 97 100 92 76 30 8 5 5 5 5 5 18 92 100 78 53 56
34 17 5 5 5 5 5 12 6 44 10 12 64 98 100 100 99 100 81 100 100 41 99 50 90 27 82 100 85 69 97 35 6 61 40 8 34 5 26 50 97 60 62 43
65 100 100 100 100 87 93 87 58 14 97 84 13 84 99 100 94 97 70 15 7 94 88 45 5 22 53 100 100 16 24 5 32 60 45 22 34 91 61 42 34 30 77 76
5 4 22 22 62 100 100 100 100 100 100 73 52 73 50 92 72 71 30 76 83 27 5 5 8 5 87 100 100 99 70 12 74 93 67 73 100 51 100 84 26 5 47 5
6 5 8 5 5 9 66 100 100 100 100 100 100 96 70 15 5 36 33 98 98 5 5 5 47 100 100 100 100 100 100 78 73 100 83 99 99 52 84 96 6 5 5 5
43 12 5 5 5 5 7 5 6 15 74 100 100 100 100 72 100 71 92 100 97 77 14 8 50 100 100 100 100 100 92 100 53 100 100 100 40 37 92 93 55 7 5 5

GFSNW_prec_cloud_294.txt.gz
Cloud_Cover
100 100 100 100 100 100 100 100 100 100 100 100 100 100 100 100 100 100 98 85 66 68 98 100 99 100 22 6 5 5 5 5 5 5 5 5 5 28 5 5 3 5 5 8
100 100 100 100 100 100 100 100 100 100 100 100 100 100 100 100 100 100 100 100 100 100 92 28 84 98 43 6 5 5 5 5 4 5 5 3 5 5 5 5 5 5 6 11
100 100 100 100 100 100 100 100 100 100 100 100 100 100 100 100 100 100 100 91 68 57 65 38 39 100 50 5 5 5 7 5 5 5 5 5 5 5 5 5 5 5 40 5
100 100 100 100 100 100 100 100 100 100 100 100 100 100 100 100 100 100 100 100 100 100 100 99 100 99 67 36 6 13 48 33 8 5 5 5 2 5 5 5 5 7 5 5
100 100 100 100 100 100 100 100 100 100 100 100 100 100 100 100 100 100 100 100 100 100 100 94 100 65 33 5 5 5 5 5 5 5 5 5 6 22 5 5 5 5 2 1
100 100 100 100 100 100 100 100 100 100 74 90 100 100 100 100 100 100 100 100 93 94 100 93 45 12 53 57 5 3 4 5 5 5 5 5 9 14 17 62 7 5 7 23
100 100 100 100 100 100 100 100 100 100 100 100 100 100 100 100 100 100 100 100 100 87 92 67 74 60 21 5 5 5 5 5 4 4 8 35 33 6 15 5 5 18 7 5
100 100 100 100 100 100 100 100 100 100 100 100 100 100 100 100 100 100 100 100 100 100 99 82 42 7 15 5 5 15 10 16 52 42 56 33 36 77 100 100 25 5 5 65
100 100 100 100 100 100 100 100 100 100 100 100 100 100 100 100 100 100 100 100 100 99 98 5 7 18 9 71 30 40 22 10 36 92 96 76 100 95 2 11 44 5 68 100
100 100 100 100 100 100 100 100 100 100 100 100 100 100 100 100 100 100 100 100 64 35 49 22 15 26 8 25 95 100 100 100 100 100 95 84 72 86 83 12 19 44 100 100
100 100 100 98 100 100 100 100 100 100 100 100 100 100 100 100 100 100 100 99 82 99 100 100 96 84 94 41 99 100 100 100 94 93 100 100 55 5 5 3 0 4 100 100
100 100 100 100 96 100 100 100 100 100 100 100 100 100 100 100 100 100 100 100 100 100 100 100 100 100 100 100 100 100 100 100 100 100 100 99 36 2 0 0 4 6 17 23
100 100 100 61 64 90 95 100 100 100 100 100 100 100 100 100 100 100 100 100 100 100 100 100 100 100 100 100 100 100 100 95 96 30 44 6 0 0 0 4 36 56 26 100
100 100 100 79 83 65 47 100 100 100 100 100 100 100 100 100 100 100 100 100 100 100 100 100 100 100 100 100 100 100 100 67 20 4 4 4 1 0 5 5 49 99 97 91
100 100 100 100 100 93 100 74 89 100 100 100 100 100 100 100 100 100 100 100 100 100 100 100 100 100 100 98 15 12 1 2 4 5 1 44 12 0 5 48 13 77 95 100
100 100 100 100 100 99 100 100 100 99 100 100 100 100 100 94 81 100 100 100 100 100 100 100 100 100 6 5 5 97 9 3 1 2 0 8 22 5 12 47 100 5 96 100
100 100 100 100 100 99 76 69 98 100 96 97 100 97 100 96 40 85 94 91 98 100 100 98 6 85 82 57 62 8 100 96 5 2 8 35 26 16 10 85 68 100 100 100
100 100 100 100 100 100 80 80 100 100 100 100 93 76 79 100 100 100 100 100 100 62 98 83 43 5 16 76 21 98 97 39 16 46 100 100 96 99 100 45 82 98 100 100
100 100 100 100 100 100 100 100 100 100 100 100 100 100 100 100 100 100 100 85 100 52 7 46 33 40 91 21 50 73 100 100 100 100 100 100 51 28 26 13 99 100 100 100
78 74 24 100 100 100 100 100 100 73 100 94 65 100 100 100 100 100 100 100 100 97 28 99 100 99 70 100 100 99 73 99 100 100 90 17 30 47 32 19 44 79 100 100
1 14 86 97 100 100 100 100 100 100 100 100 100 100 68 75 100 100 100 83 74 58 20 49 81 100 100 100 52 16 18 15 97 78 5 5 26 5 42 63 39 85 86 55
5 5 5 4 5 5 5 24 11 11 94 94 100 100 100 100 100 100 100 100 96 74 88 82 80 50 30 74 51 90 95 39 25 5 33 79 5 5 8 23 80 92 38 76
17 4 5 5 27 5 4 45 12 41 86 100 100 100 100 100 100 94 100 100 94 41 100 75 27 5 44 47 11 27 6 5 5 59 20 5 54 6 5 53 82 49 62 54
67 14 81 74 23 5 4 4 5 5 92 24 47 100 100 98 83 49 90 66 27 97 86 17 21 8 7 59 44 5 73 9 63 81 30 56 40 94 68 8 23 50 90 89
5 4 14 5 10 84 100 85 35 56 74 57 79 97 94 85 73 59 5 20 86 20 5 26 5 15 44 100 100 14 18 48 86 81 64 60 66 22 94 74 81 72 49 38
5 5 5 5 5 5 32 16 56 57 96 100 100 91 53 42 7 45 54 26 92 68 36 44 5 52 91 100 100 98 26 5 6 8 5 7 16 28 79 99 100 5 5 10
6 5 6 5 5 5 8 8 29 23 91 100 100 74 100 100 96 98 100 100 91 17 15 5 43 98 100 100 100 100 97 15 12 7 5 5 5 73 100 100 58 7 5 5